Weather History for Frenchville, ME

Change the Weather History Date:

Wednesday, February 6, 2013

  Actual Average Record
Temperature  
Mean Temperature 6 °F 10 °F  
Max Temperature 17 °F 19 °F 35 °F (2005)
Min Temperature -6 °F 2 °F -11 °F (2007)
Degree Days  
Heating Degree Days 59    
Month to date heating degree days 367  
Since 1 July heating degree days 5474  
Cooling Degree Days 0    
Month to date cooling degree days 0  
Year to date cooling degree days 0  
Moisture  
Dew Point 4 °F    
Average Humidity 79    
Maximum Humidity 92    
Minimum Humidity 63    
Precipitation  
Precipitation 0.02 in 0.02 in 0.16 in (2011)
Month to date precipitation 0.02 0.12  
Year to date precipitation 1.00 1.88  
Sea Level Pressure  
Sea Level Pressure 29.86 in    
Wind  
Wind Speed 10 mph (South)    
Max Wind Speed 25 mph    
Max Gust Speed 36 mph    
Visibility 4 miles    
Events Fog , Snow    
T = Trace of Precipitation, MM = Missing Value Source: NWS Daily Summary

Daily Weather History Graph

Daily Weather History Graph

Search for Another Location

Airport:

Trip Planner

Search our weather history database for the weather conditions in past years. The results will help you decide how hot, cold, wet, or windy it might be!

Date:

Astronomy

Feb. 06, 2013 Rise Set
Actual Time 6:51 AM EST 4:43 PM EST
Civil Twilight 6:19 AM EST 5:15 PM EST
Nautical Twilight 5:43 AM EST 5:52 PM EST
Astronomical Twilight 5:07 AM EST 6:27 PM EST
Moon 3:40 AM EST (2/6) 12:50 PM EST (2/6)
Length of Visible Light 10h 56m
Length of Day
9h 51m
Waning Crescent, 17% of the Moon is Illuminated
Feb 6
Waning Crescent
Feb 10
New
Feb 17
First Quarter
Feb 25
Full
Mar 4
Last Quarter

Hourly Weather History & Observations

Time (EST) Temp. Windchill Dew Point Humidity Pressure Visibility Wind Dir Wind Speed Gust Speed Precip Events Conditions
12:53 AM -2.0 °F -13.9 °F -9.9 °F 69% 29.96 in 10.0 mi SE 5.8 mph - N/A   Overcast
1:53 AM -0.9 °F -11.0 °F -9.9 °F 66% 29.96 in 10.0 mi SSE 4.6 mph - N/A   Overcast
2:53 AM -0.9 °F -12.7 °F -9.9 °F 66% 29.94 in 10.0 mi SE 5.8 mph - N/A   Overcast
3:53 AM -0.9 °F -12.7 °F -9.9 °F 66% 29.94 in 10.0 mi ESE 5.8 mph - N/A   Overcast
4:53 AM -0.9 °F -14.1 °F -9.0 °F 69% 29.93 in 10.0 mi ESE 6.9 mph - N/A   Overcast
5:53 AM -0.9 °F -11.0 °F -9.0 °F 69% 29.93 in 10.0 mi East 4.6 mph - N/A   Overcast
6:53 AM -0.0 °F -11.6 °F -9.0 °F 66% 29.93 in 10.0 mi ESE 5.8 mph - N/A   Overcast
7:53 AM 1.9 °F -10.6 °F -7.1 °F 66% 29.93 in 10.0 mi ESE 6.9 mph - N/A   Overcast
8:53 AM 3.9 °F -10.4 °F -4.0 °F 70% 29.92 in 6.0 mi SE 9.2 mph - N/A   Haze
9:01 AM 5.0 °F -9.1 °F -2.2 °F 72% 29.85 in 2.5 mi SE 9.2 mph - 0.00 in Snow Light Snow
9:06 AM 5.0 °F -10.0 °F -2.2 °F 72% 29.84 in 1.5 mi SSE 10.4 mph - 0.00 in Snow Light Snow
9:22 AM 5.0 °F -10.0 °F -0.4 °F 78% 29.84 in 0.8 mi SSE 10.4 mph - 0.00 in Snow Light Snow
9:36 AM 5.0 °F -10.0 °F 1.4 °F 85% 29.83 in 1.5 mi SSE 10.4 mph - 0.00 in Snow Light Snow
9:49 AM 6.8 °F -8.6 °F 1.4 °F 79% 29.83 in 1.0 mi SSE 11.5 mph - 0.00 in Snow Light Snow
9:53 AM 6.1 °F -9.5 °F 1.0 °F 80% 29.90 in 1.0 mi SSE 11.5 mph - 0.00 in Snow Light Snow
10:09 AM 6.8 °F -6.9 °F 1.4 °F 79% 29.82 in 0.8 mi SSE 9.2 mph - N/A Snow Light Snow
10:18 AM 6.8 °F -8.6 °F 1.4 °F 79% 29.82 in 1.0 mi SSE 11.5 mph - N/A Snow Light Snow
10:31 AM 6.8 °F -5.9 °F 3.2 °F 85% 29.82 in 0.8 mi SE 8.1 mph - 0.00 in Snow Light Snow
10:53 AM 8.1 °F -4.3 °F 3.9 °F 83% 29.88 in 0.8 mi SE 8.1 mph - 0.00 in Snow Light Snow
11:08 AM 8.6 °F -5.5 °F 5.0 °F 85% 29.79 in 1.0 mi SSE 10.4 mph - 0.00 in Snow Light Snow
11:34 AM 10.4 °F -4.1 °F 6.8 °F 85% 29.78 in 0.5 mi SE 11.5 mph - 0.00 in Fog , Snow Light Snow
11:53 AM 10.0 °F -2.9 °F 6.1 °F 84% 29.84 in 0.8 mi SE 9.2 mph - 0.00 in Snow Light Snow
12:14 PM 10.4 °F -3.3 °F 6.8 °F 85% 29.76 in 1.0 mi SSE 10.4 mph - 0.00 in Snow Light Snow
12:26 PM 10.4 °F -3.3 °F 6.8 °F 85% 29.76 in 0.5 mi SSE 10.4 mph - 0.00 in Fog , Snow Snow
12:53 PM 12.0 °F -1.3 °F 8.1 °F 84% 29.82 in 0.8 mi SSE 10.4 mph - 0.00 in Snow Light Snow
1:23 PM 12.2 °F -0.2 °F 10.4 °F 92% 29.76 in 0.8 mi SE 9.2 mph - 0.00 in Snow Light Snow
1:32 PM 12.2 °F 0.7 °F 8.6 °F 85% 29.75 in 1.0 mi SE 8.1 mph - 0.00 in Snow Light Snow
1:53 PM 14.0 °F 3.9 °F 10.0 °F 84% 29.81 in 1.2 mi SSE 6.9 mph - 0.00 in Snow Light Snow
2:23 PM 14.0 °F 3.9 °F 10.4 °F 86% 29.76 in 0.8 mi ESE 6.9 mph - 0.00 in Snow Light Snow
2:32 PM 15.8 °F 7.2 °F 10.4 °F 79% 29.76 in 0.8 mi SE 5.8 mph - 0.00 in Snow Light Snow
2:51 PM 15.8 °F 10.2 °F 12.2 °F 86% 29.76 in 0.5 mi SE 3.5 mph - 0.00 in Fog , Snow Snow
2:53 PM 15.1 °F 9.4 °F 12.0 °F 88% 29.83 in 0.5 mi SE 3.5 mph - 0.00 in Fog , Snow Snow
3:10 PM 15.8 °F - 12.2 °F 86% 29.77 in 0.2 mi Calm Calm - 0.00 in Fog , Snow Snow
3:25 PM 15.8 °F - 12.2 °F 86% 29.77 in 0.8 mi Calm Calm - 0.01 in Snow Light Snow
3:41 PM 15.8 °F 10.2 °F 12.2 °F 86% 29.77 in 1.2 mi WSW 3.5 mph - 0.01 in Snow Light Snow
3:43 PM 15.8 °F 8.6 °F 12.2 °F 86% 29.77 in 1.8 mi WSW 4.6 mph - 0.01 in Snow Light Snow
3:50 PM 15.8 °F 10.2 °F 12.2 °F 86% 29.78 in 2.0 mi SW 3.5 mph - 0.01 in Snow Light Snow
3:53 PM 16.0 °F 10.4 °F 12.9 °F 88% 29.85 in 1.5 mi SW 3.5 mph - 0.01 in Snow Light Snow
4:00 PM 15.8 °F 7.2 °F 12.2 °F 86% 29.78 in 1.2 mi Variable 5.8 mph - 0.00 in Snow Light Snow
4:02 PM 15.8 °F 5.1 °F 12.2 °F 86% 29.78 in 1.8 mi West 8.1 mph - 0.00 in Snow Light Snow
4:05 PM 17.6 °F 7.3 °F 12.2 °F 79% 29.78 in 3.0 mi WSW 8.1 mph - 0.00 in Snow Light Snow
4:14 PM 17.6 °F 6.4 °F 12.2 °F 79% 29.79 in 9.0 mi WSW 9.2 mph - N/A   Overcast
4:23 PM 17.6 °F 6.4 °F 10.4 °F 73% 29.80 in 2.5 mi West 9.2 mph 18.4 mph 0.00 in Snow Light Snow
4:26 PM 17.6 °F 7.3 °F 12.2 °F 79% 29.80 in 0.8 mi WNW 8.1 mph - 0.00 in Snow Light Snow
4:37 PM 15.8 °F 2.7 °F 12.2 °F 86% 29.81 in 0.2 mi NW 11.5 mph - 0.00 in Fog , Snow Snow
4:49 PM 15.8 °F 2.7 °F 12.2 °F 86% 29.82 in 1.5 mi West 11.5 mph - 0.00 in Snow Light Snow
4:51 PM 15.8 °F 3.4 °F 12.2 °F 86% 29.82 in 2.5 mi West 10.4 mph - 0.00 in Snow Light Snow
4:53 PM 15.1 °F 1.8 °F 10.9 °F 84% 29.88 in 4.0 mi WNW 11.5 mph - 0.00 in Snow Light Snow
5:02 PM 15.8 °F 3.4 °F 10.4 °F 79% 29.82 in 9.0 mi WNW 10.4 mph - 0.00 in   Overcast
5:34 PM 14.0 °F -3.4 °F 8.6 °F 79% 29.85 in 1.8 mi NNW 19.6 mph 25.3 mph 0.01 in Snow Light Snow
5:41 PM 12.2 °F -2.5 °F 6.8 °F 79% 29.85 in 1.5 mi NNW 12.7 mph 25.3 mph 0.01 in Snow Light Snow
5:44 PM 12.2 °F -4.3 °F 6.8 °F 79% 29.86 in 2.0 mi NNW 16.1 mph 21.9 mph 0.01 in Snow Light Snow
5:53 PM 10.9 °F -5.4 °F 6.1 °F 81% 29.94 in 5.0 mi NW 15.0 mph - 0.01 in Snow Light Snow
6:13 PM 8.6 °F -10.0 °F 5.0 °F 85% 29.89 in 1.8 mi NW 18.4 mph 24.2 mph 0.00 in Snow Light Snow
6:17 PM 8.6 °F -10.0 °F 3.2 °F 79% 29.89 in 1.2 mi NW 18.4 mph 24.2 mph 0.00 in Snow Light Snow
6:24 PM 8.6 °F -8.9 °F 3.2 °F 79% 29.90 in 1.2 mi NNW 16.1 mph 24.2 mph 0.00 in Snow Light Snow
6:29 PM 8.6 °F -7.7 °F 3.2 °F 79% 29.90 in 1.8 mi NNW 13.8 mph - 0.00 in Snow Light Snow
6:38 PM 6.8 °F -13.4 °F 1.4 °F 79% 29.91 in 2.5 mi NNW 20.7 mph 26.5 mph 0.00 in Snow Light Snow
6:53 PM 6.1 °F -14.3 °F 1.0 °F 80% 30.00 in 3.0 mi NNW 20.7 mph 27.6 mph 0.00 in Snow Light Snow
7:17 PM 5.0 °F -15.7 °F -4.0 °F 66% 29.95 in 10.0 mi NNW 20.7 mph 32.2 mph 0.00 in   Overcast
7:53 PM 3.0 °F -14.1 °F -6.0 °F 66% 30.04 in 10.0 mi NW 12.7 mph 24.2 mph 0.00 in   Overcast
8:53 PM 1.0 °F -16.6 °F -9.0 °F 63% 30.07 in 10.0 mi NW 12.7 mph 20.7 mph N/A   Scattered Clouds
9:53 PM -2.0 °F -21.9 °F -11.0 °F 66% 30.10 in 10.0 mi NW 15.0 mph - N/A   Clear
10:53 PM -4.0 °F -24.5 °F -11.9 °F 69% 30.12 in 10.0 mi NW 15.0 mph 23.0 mph N/A   Clear
11:53 PM -6.0 °F -27.0 °F -13.0 °F 72% 30.15 in 10.0 mi NW 15.0 mph - N/A   Clear